Provo, UT

12:47 AM MDT on March 30, 2017 (GMT -0600)
Provo Municipal

Weather History for KPVU - November, 2010

Change the Weather History Date:

Tuesday, November 30, 2010

  Actual Average Record
Temperature  
Mean Temperature 32 °F -  
Max Temperature 57 °F 40 °F 60 °F (1998)
Min Temperature 6 °F 24 °F 6 °F (2010)
Degree Days  
Heating Degree Days 34    
Moisture  
Dew Point 10 °F    
Average Humidity 87    
Maximum Humidity 100    
Minimum Humidity 11    
Precipitation  
Precipitation 0.00 in - - ()
Sea Level Pressure  
Sea Level Pressure 30.53 in    
Wind  
Wind Speed 1 mph (SSE)    
Max Wind Speed 7 mph    
Max Gust Speed -    
Visibility 11 miles    
Events      
Averages and records for this station are not official NWS values.
T = Trace of Precipitation, MM = Missing Value Source: NWS Daily Summary

Daily Weather History Graph

Daily Weather History Graph

Search for Another Location

Airport or City:

Trip Planner

Search our weather history database for the weather conditions in past years. The results will help you decide how hot, cold, wet, or windy it might be!

Date:

Astronomy

Nov. 30, 2010 Rise Set
Actual Time 7:29 AM MST 5:01 PM MST
Civil Twilight 6:59 AM MST 5:31 PM MST
Nautical Twilight 6:25 AM MST 6:05 PM MST
Astronomical Twilight 5:52 AM MST 6:38 PM MST
Moon 1:48 AM MST 1:34 PM MST
Length of Visible Light 10h 32m
Length of Day
9h 32m
Waning Crescent, 29% of the Moon is Illuminated
Nov 30
Waning Crescent
Dec 5
New
Dec 13
First Quarter
Dec 21
Full
Dec 27
Last Quarter

Hourly Weather History & Observations

Time (MST) Temp. Windchill Dew Point Humidity Pressure Visibility Wind Dir Wind Speed Gust Speed Precip Events Conditions
12:15 AM 12.2 °F - 12.2 °F 100% 30.51 in 10.0 mi Calm Calm - N/A   Clear
12:35 AM 10.4 °F -0.4 °F 8.6 °F 92% 30.51 in 10.0 mi SSE 6.9 mph - N/A   Clear
12:55 AM 10.4 °F 2.2 °F 10.4 °F 100% 30.51 in 10.0 mi South 4.6 mph - N/A   Clear
1:15 AM 10.4 °F - 10.4 °F 100% 30.50 in 10.0 mi Calm Calm - N/A   Clear
1:35 AM 8.6 °F - 6.8 °F 92% 30.51 in 10.0 mi Calm Calm - N/A   Clear
1:55 AM 8.6 °F - 8.6 °F 100% 30.51 in 10.0 mi Calm Calm - N/A   Clear
2:15 AM 8.6 °F 0.1 °F 6.8 °F 92% 30.51 in 10.0 mi ESE 4.6 mph - N/A   Clear
2:35 AM 10.4 °F - 8.6 °F 92% 30.51 in 10.0 mi Calm Calm - N/A   Clear
2:55 AM 8.6 °F - 3.2 °F 79% 30.52 in 8.0 mi Calm Calm - N/A   Clear
3:15 AM 8.6 °F - 8.6 °F 100% 30.51 in 10.0 mi Calm Calm - N/A   Clear
3:35 AM 10.4 °F - 10.4 °F 100% 30.52 in 10.0 mi Calm Calm - N/A   Clear
3:55 AM 10.4 °F - 5.0 °F 79% 30.53 in 10.0 mi Calm Calm - N/A   Clear
4:15 AM 6.8 °F - 5.0 °F 92% 30.52 in 10.0 mi Calm Calm - N/A   Clear
4:35 AM 8.6 °F 0.1 °F 8.6 °F 100% 30.52 in 10.0 mi SE 4.6 mph - N/A   Clear
4:55 AM 8.6 °F 2.0 °F 8.6 °F 100% 30.53 in 10.0 mi SE 3.5 mph - N/A   Clear
5:15 AM 6.8 °F -0.1 °F 5.0 °F 92% 30.53 in 10.0 mi ESE 3.5 mph - N/A   Clear
5:35 AM 6.8 °F -0.1 °F 5.0 °F 92% 30.54 in 10.0 mi ESE 3.5 mph - N/A   Clear
5:55 AM 6.8 °F - -0.4 °F 72% 30.54 in 10.0 mi Calm Calm - N/A   Clear
6:15 AM 6.8 °F - 5.0 °F 92% 30.55 in 10.0 mi Calm Calm - N/A   Clear
6:35 AM 6.8 °F - 6.8 °F 100% 30.55 in 10.0 mi Calm Calm - N/A   Clear
6:50 AM 8.6 °F - 5.0 °F 85% 30.55 in 10.0 mi Calm Calm - N/A   Partly Cloudy
6:55 AM 8.6 °F - 5.0 °F 85% 30.55 in 10.0 mi Calm Calm - N/A   Clear
7:15 AM 8.6 °F 2.0 °F 8.6 °F 100% 30.55 in 10.0 mi ESE 3.5 mph - N/A   Clear
7:35 AM 6.8 °F - 3.2 °F 85% 30.56 in 10.0 mi Calm Calm - N/A   Clear
7:50 AM 57.2 °F - 3.2 °F 11% 30.55 in 15.0 mi Calm Calm - N/A   Partly Cloudy
7:55 AM 6.8 °F - 3.2 °F 85% 30.55 in 10.0 mi Calm Calm - N/A   Clear
8:15 AM 6.8 °F - 6.8 °F 100% 30.55 in 10.0 mi Calm Calm - N/A   Clear
8:35 AM 8.6 °F - 8.6 °F 100% 30.55 in 7.0 mi Calm Calm - N/A   Clear
8:50 AM 10.4 °F - 8.6 °F 92% 30.55 in 15.0 mi Calm Calm - N/A   Partly Cloudy
8:55 AM 10.4 °F - 6.8 °F 85% 30.55 in 10.0 mi Calm Calm - N/A   Clear
9:15 AM 10.4 °F - 10.4 °F 100% 30.55 in 10.0 mi Calm Calm - N/A   Clear
9:35 AM 12.2 °F - 12.2 °F 100% 30.56 in 10.0 mi Calm Calm - N/A   Clear
9:50 AM 14.0 °F - 12.2 °F 93% 30.57 in 15.0 mi Calm Calm - N/A   Partly Cloudy
9:55 AM 14.0 °F - 12.2 °F 93% 30.57 in 10.0 mi Calm Calm - N/A   Clear
10:15 AM 15.8 °F 10.2 °F 14.0 °F 93% 30.57 in 10.0 mi SE 3.5 mph - N/A   Clear
10:35 AM 17.6 °F 10.7 °F 15.8 °F 93% 30.56 in 10.0 mi SE 4.6 mph - N/A   Clear
10:50 AM 19.4 °F - 14.0 °F 80% 30.56 in 15.0 mi Calm Calm - N/A   Partly Cloudy
10:55 AM 19.4 °F - 15.8 °F 86% 30.56 in 10.0 mi Calm Calm - N/A   Clear
11:15 AM 21.2 °F - 14.0 °F 74% 30.55 in 10.0 mi Calm Calm - N/A   Clear
11:35 AM 21.2 °F - 14.0 °F 74% 30.54 in 10.0 mi Calm Calm - N/A   Clear
11:54 AM 23.0 °F - 14.0 °F 68% 30.53 in 15.0 mi Calm Calm - N/A   Partly Cloudy
11:55 AM 21.2 °F 16.4 °F 14.0 °F 74% 30.54 in 10.0 mi South 3.5 mph - N/A   Clear
12:15 PM 21.2 °F 14.9 °F 14.0 °F 74% 30.53 in 10.0 mi SSW 4.6 mph - N/A   Clear
12:35 PM 21.2 °F - 14.0 °F 74% 30.52 in 10.0 mi Calm Calm - N/A   Clear
12:49 PM 21.2 °F - 15.8 °F 80% 30.51 in 15.0 mi Calm Calm - N/A   Scattered Clouds
12:55 PM 21.2 °F - 15.8 °F 80% 30.51 in 10.0 mi Calm Calm - N/A   Mostly Cloudy
1:15 PM 21.2 °F 16.4 °F 17.6 °F 86% 30.51 in 10.0 mi SW 3.5 mph - N/A   Overcast
1:35 PM 21.2 °F - 17.6 °F 86% 30.50 in 10.0 mi Calm Calm - N/A   Overcast
1:49 PM 23.0 °F - 17.6 °F 80% 30.49 in 15.0 mi Calm Calm - N/A   Overcast
1:55 PM 23.0 °F 18.4 °F 17.6 °F 80% 30.50 in 10.0 mi SW 3.5 mph - N/A   Overcast
2:15 PM 23.0 °F - 17.6 °F 80% 30.48 in 10.0 mi Calm Calm - N/A   Overcast
2:35 PM 23.0 °F - 17.6 °F 80% 30.47 in 10.0 mi Calm Calm - N/A   Overcast
2:47 PM 24.8 °F - 17.6 °F 74% 30.47 in 15.0 mi Calm Calm - N/A   Overcast
2:55 PM 24.8 °F - 15.8 °F 69% 30.47 in 10.0 mi Calm Calm - N/A   Overcast
3:15 PM 24.8 °F 20.5 °F 15.8 °F 69% 30.46 in 10.0 mi West 3.5 mph - N/A   Overcast
3:35 PM 24.8 °F - 15.8 °F 69% 30.46 in 10.0 mi Calm Calm - N/A   Overcast
3:49 PM 24.8 °F - 15.8 °F 69% 30.47 in 15.0 mi Calm Calm - N/A   Overcast
3:55 PM 24.8 °F 20.5 °F 17.6 °F 74% 30.47 in 10.0 mi WNW 3.5 mph - N/A   Overcast
4:15 PM 24.8 °F - 15.8 °F 69% 30.46 in 10.0 mi Calm Calm - N/A   Overcast
4:35 PM 24.8 °F - 17.6 °F 74% 30.45 in 10.0 mi Calm Calm - N/A   Overcast
4:54 PM 24.8 °F 20.5 °F 17.6 °F 74% 30.44 in 15.0 mi SSE 3.5 mph - N/A   Overcast
5:15 PM 24.8 °F - 17.6 °F 74% 30.44 in 10.0 mi Calm Calm - N/A   Overcast
5:35 PM 24.8 °F - 17.6 °F 74% 30.43 in 10.0 mi Calm Calm - N/A   Overcast
5:55 PM 24.8 °F 20.5 °F 17.6 °F 74% 30.43 in 10.0 mi WNW 3.5 mph - N/A   Overcast
5:59 PM 24.8 °F - 19.4 °F 80% 30.43 in 15.0 mi Calm Calm - N/A   Overcast
6:15 PM 24.8 °F - 17.6 °F 74% 30.42 in 10.0 mi Calm Calm - N/A   Overcast
6:35 PM 24.8 °F - 19.4 °F 80% 30.43 in 10.0 mi Calm Calm - N/A   Overcast
6:47 PM 24.8 °F - 21.2 °F 86% 30.42 in 15.0 mi Calm Calm - N/A   Overcast
6:55 PM 24.8 °F - 19.4 °F 80% 30.42 in 10.0 mi Calm Calm - N/A   Overcast
7:15 PM 24.8 °F - 19.4 °F 80% 30.43 in 10.0 mi Calm Calm - N/A   Overcast
7:35 PM 24.8 °F - 21.2 °F 86% 30.42 in 10.0 mi Calm Calm - N/A   Overcast
7:49 PM 24.8 °F - 19.4 °F 80% 30.41 in 15.0 mi Calm Calm - N/A   Overcast
7:55 PM 24.8 °F - 19.4 °F 80% 30.41 in 10.0 mi Calm Calm - N/A   Overcast
8:15 PM 24.8 °F - 19.4 °F 80% 30.42 in 10.0 mi Calm Calm - N/A   Overcast
8:35 PM 24.8 °F - 19.4 °F 80% 30.42 in 10.0 mi Calm Calm - N/A   Overcast
8:47 PM 24.8 °F - 19.4 °F 80% 30.42 in 15.0 mi Calm Calm - N/A   Overcast
8:55 PM 24.8 °F 19.1 °F 21.2 °F 86% 30.42 in 10.0 mi ENE 4.6 mph - N/A   Overcast
9:15 PM 24.8 °F - 19.4 °F 80% 30.42 in 10.0 mi Calm Calm - N/A   Overcast
9:35 PM 24.8 °F - 19.4 °F 80% 30.41 in 10.0 mi Calm Calm - N/A   Overcast
9:55 PM 24.8 °F 20.5 °F 21.2 °F 86% 30.39 in 10.0 mi South 3.5 mph - N/A   Overcast
10:15 PM 26.6 °F - 19.4 °F 74% 30.39 in 10.0 mi Calm Calm - N/A   Overcast
10:35 PM 24.8 °F - 21.2 °F 86% 30.39 in 10.0 mi Calm Calm - N/A   Overcast
10:55 PM 24.8 °F - 21.2 °F 86% 30.38 in 10.0 mi Calm Calm - N/A   Overcast
11:15 PM 24.8 °F - 21.2 °F 86% 30.39 in 10.0 mi Calm Calm - N/A   Overcast
11:35 PM 24.8 °F - 21.2 °F 86% 30.39 in 10.0 mi Calm Calm - N/A   Overcast
11:55 PM 26.6 °F - 21.2 °F 80% 30.39 in 10.0 mi Calm Calm - N/A   Overcast